Snowfall_Accumulation
nan nan nan nan nan nan nan 0.0 0.3 0.0 0.0 0.5 0.1 0.3 0.0 nan 0.0 0.0 0.0 0.0 0.0 0.0 0.0 0.1 0.4 0.2 0.2 0.0 0.0 0.0 0.0 0.1 1.2 0.0 0.0 0.0 0.0 0.1 0.1 4.1 2.0 1.8 2.2 11.1
nan nan nan nan nan nan 0.0 0.0 0.0 0.0 0.0 0.8 0.1 0.0 0.0 0.0 0.0 0.0 0.0 0.0 0.0 0.0 0.0 0.1 0.0 0.0 0.0 0.0 0.0 0.0 0.0 0.2 0.6 0.5 0.3 0.0 0.1 0.0 0.0 0.0 0.3 2.5 9.8 13.1
nan nan nan nan nan nan 0.0 0.0 0.5 0.0 0.0 0.0 0.0 0.0 0.0 0.0 0.0 0.0 0.0 0.0 0.0 0.0 0.0 0.0 0.0 0.0 0.0 0.0 0.0 nan nan 0.0 0.0 0.4 0.1 0.1 0.1 0.1 0.0 0.0 5.8 1.4 7.6 4.6
nan nan nan nan nan nan 0.0 0.0 0.1 0.0 0.5 0.0 0.0 0.0 0.0 0.0 0.0 0.0 0.0 0.0 0.0 0.0 0.0 0.0 0.0 0.0 0.0 0.0 nan 0.0 0.0 0.1 0.0 0.0 0.0 0.0 0.0 0.0 0.0 2.7 0.2 4.6 2.5 2.5
nan nan nan nan nan nan 0.0 0.0 0.0 0.0 0.0 0.0 0.0 0.0 0.0 0.0 0.0 0.0 0.0 0.0 0.0 0.0 0.0 0.0 0.0 0.0 0.0 0.0 0.0 0.2 0.0 0.1 0.0 0.0 0.0 0.0 0.0 0.0 0.0 0.0 0.0 0.0 0.0 0.1
nan nan nan nan nan nan 0.0 0.0 0.0 0.0 nan 0.0 0.0 0.0 0.0 0.0 0.0 0.0 0.0 0.0 0.0 0.0 0.0 0.0 0.0 0.0 0.0 0.0 0.0 0.0 0.0 0.1 0.1 1.7 0.0 0.0 0.2 0.0 0.0 0.0 0.0 0.0 0.3 0.0
nan nan nan nan nan nan 0.0 0.0 0.0 0.0 0.0 0.0 0.0 0.0 0.0 0.0 0.0 0.0 0.0 0.0 0.0 0.0 0.0 0.0 0.0 0.0 0.0 0.0 0.0 0.0 0.0 0.0 0.0 1.2 0.0 1.4 0.1 0.0 0.0 0.0 0.0 0.0 0.0 0.0
nan nan nan nan nan nan 0.0 0.0 0.0 0.0 0.0 0.0 0.0 0.0 0.0 0.0 0.0 0.0 0.0 0.0 0.0 0.0 0.0 0.0 0.0 0.0 0.0 0.0 0.0 0.0 0.0 0.0 0.3 1.2 1.3 0.0 0.0 0.0 0.0 0.0 0.0 0.0 0.0 0.0
nan nan nan nan nan nan 0.0 0.0 0.0 0.0 0.0 0.0 0.0 0.0 0.0 0.0 0.0 0.0 0.0 0.0 0.0 0.0 0.0 0.0 0.1 0.3 0.0 0.0 0.0 0.0 0.0 0.0 0.0 0.3 0.7 0.9 0.0 0.0 0.0 0.0 0.1 0.0 0.0 0.0
nan nan nan nan nan nan 0.0 0.0 0.0 0.0 0.0 0.0 0.0 0.0 0.0 0.0 0.0 0.0 0.0 0.0 0.0 0.0 0.0 0.2 0.2 0.0 0.0 0.0 0.0 0.0 0.0 0.1 0.6 0.3 0.9 0.1 0.0 0.0 0.0 0.1 0.0 0.0 0.0 0.0
nan nan nan nan nan nan 0.0 0.0 0.0 0.0 0.0 0.0 0.0 0.0 0.0 0.0 0.0 0.0 0.0 0.1 0.0 0.0 0.0 0.1 0.0 0.0 0.0 0.0 0.0 0.0 0.0 0.3 0.6 0.7 0.4 3.1 0.0 0.0 0.0 0.0 0.0 0.0 0.0 0.0
nan nan nan nan nan nan nan 0.0 0.0 0.0 0.0 0.0 0.0 0.0 0.0 0.0 0.0 0.0 0.0 0.0 0.0 0.0 0.0 0.0 0.0 0.0 0.0 0.0 0.1 0.0 0.1 0.0 0.0 0.0 0.0 0.0 0.0 0.0 0.0 0.0 0.0 0.0 0.0 0.0
nan nan nan nan nan nan nan 0.0 0.0 0.0 0.0 0.0 0.0 0.0 0.0 0.0 0.0 0.0 0.0 0.0 0.0 0.0 0.0 0.0 0.0 0.1 0.0 0.0 0.0 0.0 0.0 0.0 0.0 0.0 0.0 0.0 0.0 0.0 0.0 0.0 0.0 0.0 0.0 0.0
nan nan nan nan nan nan nan 0.0 0.0 0.0 0.0 0.1 0.0 0.0 0.0 0.0 0.0 0.0 0.0 0.0 0.0 0.0 0.0 0.0 0.0 0.1 0.0 0.0 0.0 0.0 0.0 0.0 0.0 0.0 0.0 0.0 0.0 0.0 0.0 0.0 0.0 0.0 0.0 0.0
nan nan nan nan nan nan nan 0.0 0.0 0.0 0.0 0.1 0.0 0.0 0.0 0.0 0.0 0.0 0.0 0.0 0.0 0.0 0.0 0.0 0.1 0.0 0.0 0.0 0.0 0.0 0.0 0.0 0.0 0.0 0.0 0.0 0.0 0.0 0.0 0.0 0.0 0.0 0.0 0.0
nan nan nan nan nan nan 0.0 0.0 0.0 0.0 0.0 0.3 0.5 0.0 0.0 0.0 0.0 0.0 0.0 0.0 0.0 0.0 0.0 0.0 0.0 0.0 0.0 1.5 0.4 0.0 0.0 0.0 0.0 0.0 0.0 0.0 0.0 0.0 0.0 0.0 0.0 0.0 0.0 0.0
nan nan nan nan nan 0.0 0.0 0.0 0.0 nan 0.0 0.1 1.4 0.2 0.0 0.0 0.0 0.0 0.0 0.0 0.0 0.0 0.1 0.2 0.0 0.0 0.0 0.4 0.4 0.0 0.0 0.0 0.0 0.0 0.0 0.0 0.0 0.0 0.0 0.0 0.0 0.0 0.0 0.0
nan nan nan nan nan nan 0.0 0.0 nan nan 0.0 0.0 5.5 0.7 0.0 0.0 0.0 0.0 0.0 0.0 0.0 0.0 0.0 0.2 0.1 0.0 0.0 1.1 0.0 0.0 0.0 0.0 0.0 0.0 0.0 0.0 0.0 0.0 0.0 0.0 0.0 0.0 0.0 0.0
nan nan nan 0.0 0.0 0.0 0.0 nan nan 0.0 0.1 1.6 2.3 1.8 3.3 0.0 0.1 0.0 0.0 0.0 0.6 0.0 0.4 0.1 0.0 0.2 2.0 0.0 0.0 0.0 0.0 0.0 0.0 0.0 0.0 0.0 0.0 0.0 0.0 0.0 0.0 0.0 0.0 0.0
nan 0.0 0.0 0.7 0.0 nan nan 0.0 0.3 0.4 0.1 0.2 1.8 0.1 1.3 0.0 0.0 0.2 0.3 0.8 1.3 5.8 0.4 0.1 1.7 0.2 0.0 0.0 0.0 0.0 0.0 0.0 0.0 0.0 0.0 0.0 0.0 0.0 0.0 0.0 0.0 0.0 0.0 0.0
0.0 0.4 0.6 0.0 nan 0.0 0.1 2.3 4.2 1.2 4.8 0.5 0.5 0.1 0.4 0.0 2.0 1.8 0.6 5.1 2.8 8.8 0.6 1.4 2.1 1.0 0.2 0.0 0.0 0.0 0.0 0.0 0.0 0.0 0.0 0.0 0.0 0.0 0.0 0.0 0.0 0.0 0.0 0.0
0.0 0.0 0.0 0.0 0.9 4.0 6.5 6.3 2.9 3.9 2.9 0.4 0.8 0.6 0.2 0.3 0.1 1.4 6.4 6.3 8.0 8.3 0.1 6.1 4.4 0.3 0.0 0.0 0.0 0.0 0.0 0.0 0.0 0.0 0.0 0.0 0.0 0.0 0.0 0.0 0.0 0.0 0.0 0.0
0.0 0.5 7.4 6.7 10.1 40.4 14.3 10.7 11.9 9.7 1.3 1.6 1.3 2.4 0.2 1.1 0.3 5.3 5.8 14.1 9.1 0.0 9.6 0.9 0.3 0.1 0.0 0.0 0.0 0.0 0.0 0.0 0.0 0.0 0.0 0.0 0.0 0.0 0.0 0.0 0.0 0.0 0.0 0.0
4.9 18.1 54.0 14.7 12.7 2.0 2.6 1.9 2.2 0.8 2.1 1.9 1.7 3.4 2.4 2.3 7.7 3.4 14.1 1.6 3.8 13.4 8.9 3.3 0.3 0.1 0.1 0.0 0.1 0.0 0.0 0.0 0.1 0.0 0.0 0.0 0.0 0.0 0.0 0.0 0.0 0.0 0.0 0.0
20.2 17.1 33.8 9.9 0.6 1.3 1.4 1.3 1.2 0.7 0.4 0.9 3.1 3.5 2.7 7.8 11.9 3.3 5.5 12.7 11.2 2.9 3.4 1.6 0.7 0.1 0.1 0.1 0.1 0.1 0.1 0.4 1.0 1.0 1.3 1.2 0.8 0.4 0.3 0.1 0.0 0.0 0.0 0.0
19.5 21.0 12.0 0.5 3.0 4.5 3.4 3.5 2.4 0.7 0.7 0.8 3.0 9.3 15.0 11.4 8.7 13.5 9.2 12.9 6.6 3.1 2.1 1.4 1.2 0.7 0.5 0.3 0.1 0.1 0.1 0.1 0.1 0.1 0.1 0.1 0.1 0.3 0.3 0.2 0.3 0.2 0.3 0.7
30.4 19.7 0.3 1.0 2.0 1.8 0.8 0.6 0.6 0.5 1.9 7.2 7.6 17.0 9.9 7.4 15.2 11.3 5.9 11.5 2.1 1.4 0.9 0.9 0.4 0.8 0.6 1.0 1.0 0.8 0.4 0.3 0.2 0.1 0.1 0.1 0.1 0.2 0.3 0.3 0.1 0.2 0.3 1.9
Water_Equivalent
nan nan nan nan nan nan nan 0.00 0.11 0.00 0.00 0.20 0.02 0.11 0.00 nan 0.00 0.00 0.00 0.00 0.00 0.00 0.00 0.03 0.10 0.04 0.05 0.00 0.00 0.01 0.00 0.02 0.33 0.01 0.00 0.00 0.01 0.02 0.01 0.90 0.38 0.48 0.46 1.68
nan nan nan nan nan nan 0.00 0.00 0.00 0.00 0.00 0.28 0.06 0.00 0.00 0.00 0.00 0.00 0.00 0.00 0.00 0.00 0.00 0.03 0.00 0.01 0.00 0.00 0.00 0.00 0.00 0.05 0.15 0.12 0.08 0.00 0.02 0.01 0.00 0.00 0.09 0.51 1.47 2.14
nan nan nan nan nan nan 0.00 0.00 0.20 0.01 0.00 0.00 0.00 0.00 0.00 0.00 0.00 0.00 0.00 0.00 0.00 0.00 0.00 0.00 0.00 0.00 0.00 0.00 0.00 nan nan 0.00 0.00 0.12 0.02 0.02 0.03 0.01 0.01 0.01 1.12 0.29 1.40 0.96
nan nan nan nan nan nan 0.00 0.00 0.06 0.01 0.18 0.00 0.00 0.00 0.00 0.00 0.00 0.00 0.00 0.00 0.00 0.00 0.00 0.00 0.00 0.00 0.00 0.00 nan 0.00 0.00 0.01 0.00 0.00 0.00 0.00 0.00 0.00 0.00 0.62 0.05 0.86 0.52 0.57
nan nan nan nan nan nan 0.00 0.00 0.01 0.00 0.00 0.00 0.00 0.00 0.00 0.00 0.00 0.00 0.00 0.00 0.00 0.00 0.00 0.00 0.00 0.00 0.00 0.00 0.01 0.05 0.01 0.02 0.00 0.00 0.00 0.00 0.00 0.00 0.00 0.00 0.00 0.00 0.00 0.04
nan nan nan nan nan nan 0.00 0.00 0.00 0.00 nan 0.00 0.01 0.02 0.00 0.00 0.00 0.00 0.00 0.00 0.00 0.00 0.00 0.00 0.00 0.00 0.00 0.00 0.00 0.00 0.01 0.03 0.02 0.37 0.00 0.00 0.07 0.00 0.00 0.00 0.00 0.00 0.07 0.00
nan nan nan nan nan nan 0.00 0.00 0.00 0.00 0.00 0.00 0.01 0.00 0.00 0.00 0.00 0.00 0.00 0.00 0.00 0.00 0.00 0.00 0.00 0.00 0.00 0.00 0.00 0.00 0.01 0.00 0.00 0.28 0.01 0.31 0.03 0.00 0.00 0.00 0.00 0.00 0.00 0.00
nan nan nan nan nan nan 0.00 0.00 0.00 0.00 0.00 0.00 0.00 0.00 0.00 0.00 0.00 0.00 0.00 0.00 0.00 0.00 0.00 0.00 0.00 0.00 0.00 0.00 0.00 0.00 0.00 0.00 0.07 0.27 0.26 0.00 0.00 0.00 0.00 0.00 0.00 0.00 0.00 0.00
nan nan nan nan nan nan 0.00 0.00 0.00 0.00 0.00 0.00 0.00 0.00 0.00 0.00 0.00 0.00 0.00 0.00 0.00 0.00 0.00 0.00 0.02 0.12 0.00 0.00 0.00 0.00 0.00 0.00 0.00 0.10 0.13 0.19 0.00 0.00 0.00 0.00 0.02 0.00 0.00 0.00
nan nan nan nan nan nan 0.00 0.00 0.00 0.00 0.00 0.00 0.00 0.00 0.00 0.00 0.00 0.00 0.00 0.00 0.00 0.00 0.00 0.08 0.09 0.01 0.00 0.00 0.00 0.00 0.00 0.02 0.11 0.08 0.17 0.02 0.00 0.00 0.00 0.01 0.00 0.00 0.00 0.00
nan nan nan nan nan nan 0.00 0.00 0.00 0.00 0.00 0.00 0.00 0.00 0.00 0.00 0.00 0.01 0.00 0.02 0.00 0.00 0.01 0.04 0.00 0.00 0.00 0.00 0.00 0.00 0.00 0.07 0.14 0.11 0.08 0.62 0.00 0.00 0.00 0.00 0.00 0.00 0.00 0.00
nan nan nan nan nan nan nan 0.00 0.00 0.00 0.00 0.00 0.00 0.00 0.00 0.00 0.00 0.00 0.00 0.01 0.01 0.00 0.00 0.00 0.00 0.00 0.00 0.00 0.03 0.00 0.02 0.00 0.00 0.00 0.01 0.00 0.00 0.00 0.00 0.00 0.00 0.00 0.00 0.00
nan nan nan nan nan nan nan 0.00 0.00 0.00 0.00 0.00 0.00 0.00 0.00 0.00 0.00 0.00 0.00 0.00 0.00 0.01 0.00 0.00 0.00 0.01 0.00 0.00 0.00 0.00 0.00 0.00 0.00 0.00 0.00 0.00 0.00 0.00 0.00 0.00 0.00 0.00 0.00 0.00
nan nan nan nan nan nan nan 0.00 0.00 0.00 0.00 0.03 0.00 0.00 0.00 0.00 0.00 0.00 0.00 0.00 0.00 0.00 0.00 0.00 0.00 0.02 0.00 0.00 0.00 0.00 0.00 0.00 0.00 0.00 0.00 0.00 0.00 0.00 0.00 0.00 0.00 0.00 0.00 0.00
nan nan nan nan nan nan nan 0.00 0.00 0.00 0.00 0.05 0.00 0.00 0.00 0.00 0.00 0.00 0.00 0.00 0.00 0.00 0.00 0.00 0.02 0.00 0.00 0.00 0.00 0.00 0.00 0.00 0.00 0.00 0.00 0.00 0.00 0.00 0.00 0.00 0.00 0.00 0.00 0.00
nan nan nan nan nan nan 0.00 0.00 0.00 0.00 0.00 0.12 0.21 0.00 0.00 0.00 0.00 0.00 0.00 0.00 0.00 0.00 0.00 0.00 0.00 0.00 0.00 0.36 0.10 0.00 0.00 0.00 0.00 0.00 0.00 0.00 0.00 0.00 0.00 0.00 0.00 0.00 0.00 0.00
nan nan nan nan nan 0.00 0.00 0.00 0.00 nan 0.00 0.04 0.54 0.08 0.00 0.00 0.00 0.00 0.00 0.00 0.00 0.00 0.02 0.06 0.00 0.00 0.00 0.10 0.12 0.00 0.00 0.00 0.00 0.00 0.00 0.00 0.00 0.00 0.00 0.00 0.00 0.00 0.00 0.00
nan nan nan nan nan nan 0.00 0.00 nan nan 0.00 0.00 2.08 0.25 0.00 0.00 0.01 0.00 0.00 0.00 0.00 0.00 0.00 0.04 0.03 0.00 0.00 0.27 0.00 0.00 0.00 0.00 0.00 0.00 0.00 0.00 0.00 0.00 0.00 0.00 0.00 0.00 0.00 0.00
nan nan nan 0.00 0.00 0.00 0.00 nan nan 0.00 0.03 0.46 0.72 0.62 1.12 0.00 0.02 0.00 0.00 0.00 0.19 0.00 0.07 0.02 0.00 0.03 0.49 0.00 0.00 0.00 0.00 0.00 0.00 0.00 0.00 0.00 0.00 0.00 0.00 0.00 0.00 0.00 0.00 0.00
nan 0.00 0.00 0.27 0.00 nan nan 0.00 0.12 0.16 0.04 0.06 0.52 0.02 0.32 0.01 0.01 0.08 0.08 0.17 0.36 1.98 0.14 0.01 0.29 0.08 0.00 0.00 0.00 0.00 0.00 0.00 0.00 0.00 0.00 0.00 0.00 0.00 0.00 0.00 0.00 0.00 0.00 0.00
0.00 0.14 0.23 0.00 nan 0.00 0.03 0.74 1.08 0.35 1.05 0.12 0.12 0.04 0.12 0.00 0.56 0.49 0.14 1.28 0.72 1.92 0.19 0.37 0.58 0.26 0.07 0.00 0.00 0.00 0.00 0.00 0.00 0.00 0.00 0.00 0.00 0.00 0.00 0.00 0.00 0.00 0.00 0.00
0.00 0.00 0.00 0.00 0.36 1.29 1.64 1.56 0.89 0.86 0.86 0.15 0.24 0.18 0.07 0.10 0.04 0.43 1.42 1.32 1.58 1.34 0.01 1.14 0.80 0.09 0.00 0.00 0.00 0.00 0.00 0.00 0.00 0.00 0.00 0.00 0.00 0.00 0.00 0.00 0.00 0.00 0.00 0.00
0.00 0.18 2.45 1.81 2.49 6.22 2.43 1.60 2.33 2.06 0.45 0.54 0.43 0.72 0.06 0.24 0.10 1.23 1.13 2.43 1.60 0.01 1.71 0.15 0.07 0.02 0.00 0.00 0.00 0.00 0.00 0.00 0.00 0.00 0.00 0.00 0.00 0.00 0.00 0.00 0.00 0.00 0.00 0.00
1.19 4.98 9.17 2.72 2.32 0.51 0.72 0.48 0.59 0.28 0.63 0.51 0.39 0.90 0.56 0.44 1.39 0.64 2.55 0.31 0.64 1.94 1.26 0.54 0.07 0.03 0.02 0.00 0.02 0.01 0.02 0.02 0.02 0.01 0.01 0.01 0.00 0.00 0.00 0.00 0.00 0.00 0.00 0.00
5.17 3.96 5.25 2.05 0.23 0.47 0.48 0.49 0.46 0.29 0.16 0.31 0.69 0.86 0.53 1.69 2.13 0.57 1.12 1.78 1.64 0.46 0.54 0.36 0.16 0.03 0.02 0.04 0.03 0.03 0.04 0.12 0.26 0.27 0.34 0.32 0.20 0.12 0.10 0.03 0.01 0.01 0.01 0.00
5.23 4.79 2.37 0.11 0.84 1.22 0.95 1.20 0.82 0.25 0.20 0.28 0.79 1.83 2.37 1.86 1.45 1.98 1.43 1.83 0.89 0.61 0.49 0.39 0.32 0.19 0.14 0.09 0.03 0.02 0.02 0.02 0.02 0.02 0.03 0.03 0.03 0.07 0.08 0.06 0.07 0.07 0.08 0.15
7.29 4.10 0.08 0.29 0.57 0.53 0.24 0.19 0.18 0.07 0.49 1.51 1.49 2.34 1.50 1.34 2.13 1.57 1.15 1.84 0.48 0.36 0.23 0.22 0.09 0.19 0.15 0.25 0.22 0.17 0.09 0.06 0.04 0.02 0.02 0.02 0.02 0.03 0.05 0.05 0.03 0.06 0.08 0.34
SL_Ratio
nan nan nan nan nan nan nan nan 2.5 nan nan 2.5 2.5 2.5 nan nan nan nan nan nan nan nan 2.5 3.6 3.9 3.9 3.4 nan nan 3.2 nan 3.6 3.8 3.4 nan nan 3.3 3.6 3.8 4.5 5.3 3.8 4.8 6.6
nan nan nan nan nan nan nan nan nan nan nan 2.8 2.5 nan nan nan nan nan nan nan nan nan nan 4.1 3.8 3.3 nan nan nan nan nan 3.3 4.1 4.1 3.8 nan 3.8 3.5 nan nan 3.4 4.9 6.7 6.1
nan nan nan nan nan nan nan nan 2.5 2.6 nan nan nan nan nan nan nan nan nan nan nan nan nan nan 2.9 nan nan nan nan nan nan nan nan 3.8 5.1 3.6 3.8 4.1 3.1 3.7 5.2 4.9 5.4 4.8
nan nan nan nan nan nan nan nan 2.5 2.3 2.7 nan nan nan nan nan nan nan nan nan nan nan nan nan nan nan nan nan nan nan nan 3.6 nan nan nan nan nan nan nan 4.4 4.3 5.3 4.7 4.4
nan nan nan nan nan nan nan nan 2.6 nan nan nan nan nan nan nan nan nan nan nan nan nan nan nan 2.5 3.3 nan 2.7 3.0 3.3 3.5 3.9 nan 3.8 nan nan nan nan nan nan nan 0.0 nan 3.5
nan nan nan nan nan nan nan nan nan nan nan nan 2.7 2.7 nan nan nan nan nan nan nan nan nan nan nan nan nan nan 3.1 3.3 3.4 3.5 3.7 4.5 nan nan 3.7 nan nan nan nan nan 3.9 3.6
nan nan nan nan nan nan nan nan nan nan 3.3 nan 2.8 nan nan nan nan nan nan nan nan nan nan nan nan nan nan nan nan nan 3.3 2.0 nan 4.3 3.7 4.5 4.0 nan nan nan nan nan nan nan
nan nan nan nan nan nan nan nan nan nan nan nan nan nan nan nan nan nan nan nan nan nan nan nan 0.0 nan nan nan nan nan nan nan 3.9 4.4 4.9 4.5 nan nan nan nan nan nan nan nan
nan nan nan nan nan nan nan nan nan nan nan nan nan nan nan nan nan nan nan nan nan nan nan 0.0 4.0 2.8 nan 0.0 5.0 nan nan nan nan 2.8 5.3 4.7 nan nan nan nan 3.2 nan nan nan
nan nan nan nan nan nan nan nan nan nan nan nan nan nan nan nan nan nan nan nan nan nan nan 2.5 2.5 2.4 nan nan nan 7.3 6.4 4.4 5.2 4.1 5.4 3.5 nan nan nan 5.2 3.3 nan nan nan
nan nan nan nan nan nan nan nan nan nan nan nan nan nan nan nan nan 2.8 nan 2.8 nan nan 2.6 2.6 nan nan nan nan nan nan 4.3 4.1 4.3 6.2 5.5 5.0 nan nan 5.0 5.0 nan nan nan nan
nan nan nan nan nan nan nan nan nan nan nan nan nan nan nan nan nan nan nan 2.9 2.5 3.3 nan nan nan nan nan nan 4.3 nan 4.4 nan 5.0 3.3 3.3 nan nan nan nan nan nan nan nan nan
nan nan nan nan nan nan nan nan nan nan nan nan nan nan nan nan nan nan nan nan nan 2.6 nan nan nan 6.2 nan nan nan nan nan nan 3.3 nan nan nan nan nan nan nan nan nan nan nan
nan nan nan nan nan nan nan nan nan nan nan 2.7 nan nan nan nan nan nan nan nan nan nan nan nan 3.8 4.3 nan 5.0 nan nan nan nan nan 5.0 nan nan nan nan nan nan nan nan nan nan
nan nan nan nan nan nan nan nan nan nan nan 2.6 nan nan nan nan nan nan nan nan nan nan nan nan 4.0 nan 5.0 nan 4.7 nan nan nan nan nan nan nan nan nan nan nan nan nan nan nan
nan nan nan nan nan nan nan nan nan nan nan 2.5 2.5 nan nan nan nan nan nan nan nan nan nan 0.0 nan nan nan 4.1 4.1 nan nan nan nan nan nan nan nan nan nan nan nan nan nan nan
nan nan nan nan nan nan nan nan nan nan nan 2.5 2.5 2.5 nan nan nan nan nan nan nan nan 3.8 3.6 nan nan nan 4.4 3.0 nan nan nan nan nan nan nan nan nan nan nan nan nan nan nan
nan nan nan nan nan nan nan nan nan nan nan 0.0 2.6 2.8 2.5 nan 2.7 0.0 nan 0.0 5.0 3.3 nan 4.5 3.7 nan 5.0 4.1 nan nan nan nan nan nan nan nan nan nan nan nan nan nan nan nan
nan nan nan nan nan nan nan nan nan nan 3.6 3.4 3.2 2.9 2.9 nan 2.8 nan nan nan 3.5 nan 5.6 6.1 nan 5.8 4.0 0.0 2.5 nan nan nan nan nan nan nan nan nan nan nan nan nan nan nan
nan nan 2.5 2.6 nan nan nan 2.0 2.5 2.7 2.7 3.2 3.4 2.8 4.1 3.7 3.5 3.1 3.9 4.7 3.7 2.9 3.1 5.3 5.8 2.7 nan nan nan nan nan nan nan nan 2.9 nan 2.5 nan nan nan nan nan nan nan
nan 2.6 2.5 nan nan nan 2.4 3.1 3.9 3.5 4.6 4.0 4.0 2.7 3.5 nan 3.6 3.7 4.0 4.0 3.8 4.6 3.0 3.9 3.5 3.8 2.9 nan nan nan nan nan nan 0.0 nan nan 5.0 6.0 nan nan nan nan nan nan
nan nan nan nan 2.6 3.1 4.0 4.1 3.3 4.6 3.4 2.8 3.5 3.1 2.7 2.7 2.5 3.3 4.5 4.8 5.1 6.2 4.6 5.3 5.5 3.4 3.6 nan nan nan 0.0 nan nan 0.0 5.0 nan nan nan nan nan nan nan nan nan
nan 2.8 3.0 3.7 4.1 6.5 5.9 6.7 5.1 4.7 2.9 3.0 3.1 3.3 3.1 4.4 2.9 4.3 5.1 5.8 5.7 5.4 5.6 5.9 4.2 3.2 0.0 3.6 5.0 7.5 nan nan nan nan nan nan nan nan nan 10.0 nan nan nan nan
4.1 3.6 5.9 5.4 5.5 4.0 3.7 3.9 3.7 2.8 3.4 3.8 4.4 3.8 4.3 5.2 5.6 5.3 5.5 5.1 6.0 6.9 7.0 6.1 4.0 5.1 5.9 5.7 5.0 3.3 2.6 2.5 2.6 2.4 2.6 2.4 2.3 0.0 nan nan nan nan nan nan
3.9 4.3 6.4 4.8 2.8 2.9 2.9 2.7 2.7 2.6 2.6 2.8 4.4 4.1 5.1 4.6 5.6 5.8 4.9 7.2 6.8 6.4 6.4 4.4 4.5 3.2 2.8 3.1 2.8 2.7 2.9 3.7 3.8 3.6 3.8 3.7 3.8 3.5 3.5 3.1 2.7 2.9 2.9 2.9
3.7 4.4 5.1 4.3 3.6 3.7 3.6 2.9 2.9 2.8 3.5 3.0 3.8 5.1 6.3 6.1 6.0 6.8 6.5 7.1 7.4 5.1 4.2 3.4 3.6 3.9 3.5 3.5 3.3 3.2 3.1 3.6 3.5 3.5 3.5 3.4 3.7 3.8 3.8 3.8 3.9 3.6 3.5 4.5
4.2 4.8 3.3 3.4 3.5 3.3 3.2 3.0 3.3 6.6 3.8 4.7 5.1 7.3 6.6 5.5 7.1 7.2 5.2 6.2 4.4 3.9 3.8 3.9 4.0 4.1 3.9 4.2 4.6 4.5 4.6 4.6 4.4 4.0 4.1 4.2 4.1 4.8 5.5 5.8 4.0 4.5 4.3 5.7